Change the Weather History Date:

Tuesday, December 11, 2012

  Actual Average Record
Temperature  
Mean Temperature 29 °F -  
Max Temperature 34 °F 40 °F 64 °F (2007)
Min Temperature 24 °F 26 °F 10 °F (2013)
Degree Days  
Heating Degree Days 36    
Moisture  
Dew Point 23 °F    
Average Humidity 71    
Maximum Humidity 83    
Minimum Humidity 55    
Precipitation  
Precipitation 0.00 in - - ()
Sea Level Pressure  
Sea Level Pressure 30.10 in    
Wind  
Wind Speed 8 mph (SW)    
Max Wind Speed 12 mph    
Max Gust Speed -    
Visibility 10 miles    
Events Rain , Snow    
Averages and records for this station are not official NWS values.
T = Trace of Precipitation, MM = Missing Value Source: NWS Daily Summary

Daily Weather History Graph

Daily Weather History Graph

Search for Another Location

Airport or City:

Trip Planner

Search our weather history database for the weather conditions in past years. The results will help you decide how hot, cold, wet, or windy it might be!

Date:

Astronomy

Dec. 11, 2012 Rise Set
Actual Time 7:47 AM EST 5:11 PM EST
Civil Twilight 7:17 AM EST 5:41 PM EST
Nautical Twilight 6:43 AM EST 6:15 PM EST
Astronomical Twilight 6:10 AM EST 6:48 PM EST
Moon 5:41 AM EST (12/11) 3:49 PM EST (12/11)
Length of Visible Light 10h 24m
Length of Day
9h 23m
Waning Crescent, 4% of the Moon is Illuminated
Dec 11
Waning Crescent
Dec 13
New
Dec 20
First Quarter
Dec 28
Full
Jan 4
Last Quarter

Hourly Weather History & Observations

Time (EST) Temp. Windchill Dew Point Humidity Pressure Visibility Wind Dir Wind Speed Gust Speed Precip Events Conditions
12:55 AM 32.4 °F 26.9 °F 27.9 °F 83% 29.94 in 10.0 mi WSW 5.8 mph - N/A   Overcast
1:55 AM 32.9 °F 25.9 °F 27.3 °F 80% 29.95 in 10.0 mi WSW 8.1 mph - N/A   Overcast
2:55 AM 32.9 °F 25.3 °F 27.7 °F 81% 29.96 in 10.0 mi WSW 9.2 mph - 0.00 in Snow Light Snow
3:55 AM 33.1 °F 25.5 °F 27.0 °F 78% 29.99 in 10.0 mi West 9.2 mph - 0.00 in Snow Light Snow
4:41 AM 32.0 °F 24.8 °F 26.6 °F 80% 29.99 in 10.0 mi WSW 8.1 mph - N/A   Overcast
4:55 AM 32.9 °F 25.9 °F 26.2 °F 76% 30.00 in 10.0 mi WSW 8.1 mph - 0.00 in   Overcast
5:55 AM 32.7 °F 24.5 °F 26.4 °F 78% 30.02 in 10.0 mi West 10.4 mph - N/A   Overcast
5:58 AM 32.0 °F 23.0 °F 26.6 °F 80% 30.02 in 10.0 mi West 11.5 mph - N/A Snow Light Snow
6:55 AM 32.4 °F 24.6 °F 26.1 °F 78% 30.03 in 10.0 mi West 9.2 mph - 0.00 in Rain Light Rain
7:24 AM 32.0 °F 24.2 °F 24.8 °F 75% 30.05 in 10.0 mi West 9.2 mph - N/A   Overcast
7:55 AM 32.4 °F 24.6 °F 25.3 °F 75% 30.06 in 10.0 mi West 9.2 mph - 0.00 in   Overcast
8:38 AM 32.0 °F 24.8 °F 23.0 °F 69% 30.08 in 10.0 mi West 8.1 mph - N/A   Overcast
8:55 AM 32.4 °F 25.3 °F 23.4 °F 69% 30.09 in 10.0 mi West 8.1 mph - N/A   Overcast
9:55 AM 32.5 °F 26.2 °F 23.2 °F 68% 30.12 in 10.0 mi SW 6.9 mph - N/A   Overcast
10:55 AM 32.7 °F 29.6 °F 23.0 °F 67% 30.14 in 10.0 mi WNW 3.5 mph - N/A   Overcast
11:55 AM 32.9 °F 24.7 °F 23.9 °F 69% 30.14 in 10.0 mi SW 10.4 mph - N/A   Overcast
12:49 PM 33.8 °F 25.8 °F 21.2 °F 60% 30.13 in 10.0 mi SSW 10.4 mph - N/A   Overcast
12:55 PM 34.0 °F 26.0 °F 20.5 °F 58% 30.13 in 10.0 mi SW 10.4 mph - N/A   Overcast
1:55 PM 33.3 °F 25.1 °F 21.2 °F 61% 30.14 in 10.0 mi SSW 10.4 mph - N/A   Overcast
2:55 PM 33.4 °F 25.9 °F 19.6 °F 57% 30.14 in 10.0 mi WSW 9.2 mph - N/A   Overcast
3:55 PM 33.6 °F 25.6 °F 18.9 °F 55% 30.15 in 10.0 mi SSW 10.4 mph - N/A   Mostly Cloudy
4:55 PM 31.5 °F 22.9 °F 19.0 °F 60% 30.17 in 10.0 mi SSW 10.4 mph - N/A   Scattered Clouds
5:55 PM 27.0 °F 19.5 °F 18.7 °F 71% 30.19 in 10.0 mi SSW 6.9 mph - N/A   Partly Cloudy
6:55 PM 27.1 °F 19.7 °F 18.1 °F 69% 30.19 in 10.0 mi South 6.9 mph - N/A   Clear
7:55 PM 26.1 °F - 18.3 °F 73% 30.21 in 10.0 mi Calm Calm - N/A   Clear
8:55 PM 27.0 °F 19.5 °F 18.9 °F 72% 30.22 in 10.0 mi South 6.9 mph - N/A   Clear
9:55 PM 25.9 °F 21.7 °F 18.3 °F 73% 30.23 in 10.0 mi South 3.5 mph - N/A   Clear
10:55 PM 24.6 °F 20.3 °F 18.3 °F 77% 30.25 in 10.0 mi SSW 3.5 mph - N/A   Clear
11:55 PM 24.8 °F 19.1 °F 18.1 °F 76% 30.27 in 10.0 mi South 4.6 mph - N/A   Clear